Regional Weather Roundup
Issued by NWS Upton, NY

Current Version | Previous Version | Text Only | Print | Product List | Glossary On
Versions: 1 2 3 4 5 6 7 8 9 10 11 12 13 14 15 16 17 18 19 20 21 22 23 24 25 26 27 28 29
000
ASUS41 KOKX 292105
RWROKX

REGIONAL WEATHER ROUNDUP
NATIONAL WEATHER SERVICE NEW YORK NY
500 PM EDT WED OCT 29 2014

NOTE: "FAIR" INDICATES FEW OR NO CLOUDS BELOW 12,000 FEET WITH NO
SIGNIFICANT WEATHER AND/OR OBSTRUCTIONS TO VISIBILITY.

NYZ071-072-176-178-NJZ106-104-292200-
NEW YORK CITY METRO AREA


CITY           SKY/WX    TMP DP  RH WIND       PRES   REMARKS
CENTRAL PARK   CLOUDY    63  40  42 VRB6      29.90S
LAGUARDIA APRT CLOUDY    63  41  44 NW14      29.87R
KENNEDY INTL   CLOUDY    65  40  39 NW18      29.88R
NEWARK/LIBERTY CLOUDY    62  39  42 W20G29    29.89R
BRNX BOT. GARD   N/A     61  39  44 NW9       29.90S
TETERBORO      CLOUDY    61  38  42 W17       29.88R
$$

NYZ177-179-078>081-292200-
LONG ISLAND NEW YORK

CITY           SKY/WX    TMP DP  RH WIND       PRES   REMARKS
FARMINGDALE    CLOUDY    65  45  48 NW17G28   29.85R
ISLIP          CLOUDY    65  46  50 NW18      29.83R
SHIRLEY        CLOUDY    67  48  50 NW17      29.84R
WESTHAMPTON    CLOUDY    66  59  78 SW8       29.83R
MONTAUK POINT    N/A     63  60  90 S6        29.82R
$$

NYZ052-065-067-292200-
HUDSON VALLEY

CITY           SKY/WX    TMP DP  RH WIND       PRES   REMARKS
WHITE PLAINS   CLOUDY    60  42  51 NW12      29.86S
NEWBURGH       LGT RAIN  52  50  93 CALM      29.88F
MONTGOMERY     LGT RAIN  53  50  89 S5        29.87F
POUGHKEEPSIE   LGT RAIN  53  48  83 VRB3      29.86F
ALBANY         CLOUDY    55  52  89 CALM      29.86S
$$

NJZ001-105-106-008-010-013-015-019>022-104-292200-
NEW JERSEY

CITY           SKY/WX    TMP DP  RH WIND       PRES   REMARKS
NEWARK/LIBERTY CLOUDY    62  39  42 W20G29    29.89R
TETERBORO      CLOUDY    61  38  42 W17       29.88R
CALDWELL       LGT RAIN  53  45  74 NW5       29.91R
MORRISTOWN     LGT RAIN  54  48  82 NW3       29.90S FOG
SOMERVILLE     LGT RAIN  51  48  89 CALM      29.90R FOG
SUSSEX         LGT RAIN  54  50  86 SW3       29.88F
ANDOVER          N/A     50  48  93 SW3       29.90S
TRENTON        LGT RAIN  51  46  83 W5        29.93R
MILLVILLE      CLOUDY    60  40  47 NW14      29.92S
ATLANTIC CITY  CLOUDY    62  41  46 NW16G24   29.90R
WRIGHTSTOWN    CLOUDY    59  41  51 NW15G21   29.90R
TOMS RIVER     CLOUDY    61  41  48 NW7       29.90R
BELMAR         CLOUDY    61  39  44 NW18      29.89S
$$

PAZ047>061-062-071-292200-
EASTERN PENNSYLVANIA

CITY           SKY/WX    TMP DP  RH WIND       PRES   REMARKS
PHILADELPHIA   LGT RAIN  54  47  77 CALM      29.94F
ALLENTOWN      CLOUDY    53  48  83 SW5       29.91F
SCRANTON       CLOUDY    53  48  83 SW3       29.89S
$$

CTZ002-004>006-009-010-012-RIZ004-006-007-MAZ004-011-015-292200-
SOUTHERN NEW ENGLAND
 IN CT

CITY           SKY/WX    TMP DP  RH WIND       PRES   REMARKS
BRADLEY INTL   CLOUDY    61  45  55 NW9       29.84R
HARTFORD       CLOUDY    62  49  62 VRB7      29.84R
DANBURY        CLOUDY    59  38  45 NW8       29.87S
WTRBRY/OXFORD  CLOUDY    59  39  47 MISG      29.85R
BRIDGEPORT     CLOUDY    65  46  50 NW14      29.84R
MERIDEN        CLOUDY    65  46  50 NW14G22   29.84R
NEW HAVEN      CLOUDY    67  45  45 NW13G24   29.83R
CHESTER        MOCLDY    68  52  56 NW12      29.82R
GROTON         MOCLDY    63  60  90 SW7       29.79R
WILLIMANTIC    CLOUDY    63  50  62 NW15      29.83R

 IN RI

CITY           SKY/WX    TMP DP  RH WIND       PRES   REMARKS
PROVIDENCE     MOCLDY    70  59  68 SW7       29.78S
BLOCK ISLAND   MOCLDY    63  59  88 SW12      29.81S
WESTERLY       PTCLDY    67  60  78 W7        29.80S

 IN MA

CITY           SKY/WX    TMP DP  RH WIND       PRES   REMARKS
BOSTON         CLOUDY    67  55  65 N15G24    29.78R
WORCESTER      CLOUDY    57  44  62 NW14      29.83R
WESTFIELD      CLOUDY    59  41  51 W5        29.85R
PROVINCETOWN   MOCLDY    63   7  11 SW9       29.79R
NANTUCKET      MOCLDY    63  60  90 S12       29.82F
$$

ANZ330-335-338-340-345-350-353-355-292200-
COASTAL MARINE OBSERVATIONS


STATION/POSITION TIME  SKY/WX   TEMP    WIND        PRES    VSBY  WAVE
                                AIR SEA DIR/SP/G                  HT/PER
                 (UTC)          (F)     (DEG/KT/KT) (MB)    (MI)  (FT/S)
NY HARB ENTRANCE 2100            63 62  290/ 21/ 25 1011.3          3/ 4
4S FIRE IS       2100               62                N/A           4/ 6
20S FIRE ISLAND  2100            64 62  280/ 19/ 23 1010.1          3/ 6
23SW MTP         2100                                 N/A           4/ 7
HUDSON CANYON    2100            65 66  230/ 14/ 16 1010.6          5/ 6
EXECUTION ROCKS  2100            63 60  300/ 14/ 21   N/A
WESTERN LI SOUND 2100            63     310/ 16/ 19   N/A           2/ 3
CENTRAL LI SOUND 2100            64 62  290/ 16/ 19   N/A           1
EASTERN LI SOUND 2000            65 62  220/  4/  6   N/A
ROBBINS REEF     2100            63     310/ 19/ 24 1010.5
$$


>>>>>>>>>>>>>>>>>>>>>>>>>>>> KEY <<<<<<<<<<<<<<<<<<<<<<<<<<<
>                                                          <
>     SKY/WX - SKY CONDITION/PRESENT WEATHER               <
>     TMP    - TEMPERATURE IN FAHRENHEIT                   <
>     DP     - DEWPOINT IN FAHRENHEIT                      <
>     RH     - RELATIVE HUMIDITY IN PERCENT                <
>     WIND   - DIRECTION AND SPEED IN MPH                  <
>     PRES   - MEAN SEA LEVEL PRESSURE IN INCHES OF HG     <
>     WCI    - WIND CHILL INDEX                            <
>     VSB    - VISIBILITY IN MILES                         <
>     HX     - HEAT INDEX                                  <
>     TC     - TEMPERATURE IN CELSIUS                      <
>     VRB    - VARIABLE WIND DIRECTION                     <
>                                                          <
>>>>>>>>>>>>>>>>>>>>>>>>>>>> KEY <<<<<<<<<<<<<<<<<<<<<<<<<<<





USA.gov is the U.S. government's official web portal to all federal, state and local government web resources and services.